KC1TWD Weather Reports


time (UTC)temp
F
wind
direction
speed
knots
gust
knots
rain 1hr
in
rain 24hr
in
rain mn
in
humidity
%
barometer
mb
20260901154802 61 250 0.0 0.0 0.00 0.00 0.00 99 1019.0
20260901154255 61 176 0.0 0.0 0.00 0.00 0.00 99 1018.7
20260901153751 61 211 0.0 0.0 0.00 0.00 0.00 99 1019.0
20260901153250 61 224 0.0 0.0 0.00 0.00 0.00 99 1018.8
20260901152749 61 205 0.0 0.0 0.00 0.00 0.00 99 1018.7
20260901152249 61 223 0.0 0.0 0.00 0.00 0.00 99 1018.6
20260901151744 61 180 0.0 0.0 0.00 0.00 0.00 99 1018.5
20260901151239 61 181 0.0 0.0 0.00 0.00 0.00 99 1018.4
20260901150738 60 177 0.0 0.0 0.00 0.00 0.00 99 1018.5
20260901150236 60 176 0.0 0.0 0.00 0.00 0.00 99 1018.4
20260901145734 61 167 0.0 0.0 0.00 0.00 0.00 99 1018.2
20260901145234 61 164 0.0 0.0 0.00 0.00 0.00 99 1018.3
20260901144729 60 160 0.0 0.0 0.00 0.00 0.00 99 1018.6
20260901144224 60 174 0.0 0.0 0.00 0.00 0.00 99 1018.4
20260901143720 60 178 0.0 0.0 0.00 0.00 0.00 99 1018.6
20260901143216 60 178 0.0 0.0 0.00 0.00 0.00 99 1018.6
20260901142712 60 178 0.0 0.0 0.00 0.00 0.00 99 1018.5
20260901142211 60 185 0.0 0.0 0.00 0.00 0.00 99 1018.5
20260901141707 60 201 0.0 0.0 0.00 0.00 0.00 99 1018.5
20260901141206 60 184 0.0 0.0 0.00 0.00 0.00 99 1018.6
20260901140705 60 187 0.0 0.0 0.00 0.00 0.00 99 1018.7
20260901140204 60 291 0.0 0.0 0.00 0.00 0.00 99 1018.7
20260901135700 60 306 0.0 0.0 0.00 0.00 0.00 99 1018.6
20260901135200 61 213 0.0 0.0 0.00 0.00 0.00 99 1018.3
20260901134656 60 210 0.0 0.0 0.00 0.00 0.00 99 1018.6
20260901134151 60 211 0.0 0.0 0.00 0.00 0.00 99 1018.5
20260901133650 60 209 0.0 0.0 0.00 0.00 0.00 99 1018.3
20260901133149 60 204 0.0 0.0 0.00 0.00 0.00 99 1018.4
20260901132643 60 204 0.0 0.0 0.00 0.00 0.00 99 1018.3
20260901132137 60 194 0.0 0.0 0.00 0.00 0.00 99 1018.2
20260901131637 60 195 0.0 0.0 0.00 0.00 0.00 99 1018.4
20260901131131 60 194 0.0 0.0 0.00 0.00 0.00 99 1018.4
20260901130627 60 216 0.0 0.0 0.00 0.00 0.00 99 1018.5
20260901130125 60 213 0.0 0.0 0.00 0.00 0.00 99 1018.6
20260901125624 60 208 0.0 0.0 0.00 0.00 0.00 99 1018.9
20260901125120 60 227 0.0 0.0 0.00 0.00 0.00 99 1018.7
20260901124619 60 237 0.0 0.0 0.00 0.00 0.00 99 1019.1
20260901124114 60 250 0.0 0.0 0.00 0.00 0.00 99 1018.9
20260901123614 60 250 0.0 0.0 0.00 0.00 0.00 99 1019.1
20260901123113 60 254 0.0 0.0 0.00 0.00 0.00 99 1019.1
20260901122613 60 266 0.0 0.0 0.00 0.00 0.00 99 1019.0
20260901122112 60 237 0.0 0.0 0.00 0.00 0.00 99 1019.2
20260901121607 60 232 0.0 0.0 0.00 0.00 0.00 99 1019.0
20260901121103 60 231 0.0 0.0 0.00 0.00 0.00 99 1019.3
20260901120602 60 228 0.0 0.0 0.00 0.00 0.00 99 1019.4
20260901120058 60 236 0.0 0.0 0.00 0.00 0.00 99 1019.2
20260901115553 60 235 0.0 0.0 0.00 0.00 0.00 99 1019.2
20260901115044 60 238 0.0 0.0 0.00 0.00 0.00 98 1019.2
20260901114540 60 238 0.0 0.0 0.00 0.00 0.00 98 1019.1
20260901114038 60 239 0.0 0.0 0.00 0.00 0.00 97 1019.1
20260901113537 61 240 0.0 0.0 0.00 0.00 0.00 97 1018.9
20260901113033 61 244 0.0 0.0 0.00 0.00 0.00 97 1018.8
20260901112533 61 242 0.0 0.0 0.00 0.00 0.00 97 1018.8
20260901112028 61 227 0.0 0.0 0.00 0.00 0.00 96 1018.6
20260901111526 61 227 0.0 0.0 0.00 0.00 0.00 96 1018.6
20260901111025 61 232 0.0 0.0 0.00 0.00 0.00 96 1018.2
20260901110521 61 272 0.0 0.0 0.00 0.00 0.00 96 1018.3
20260901110017 61 272 0.0 0.0 0.00 0.00 0.00 96 1018.4
20260901105513 61 233 0.0 0.0 0.00 0.00 0.00 95 1018.1
20260901105012 61 234 0.0 0.0 0.00 0.00 0.00 95 1018.3
20260901104508 61 255 0.0 0.0 0.00 0.00 0.00 96 1018.3
20260901103958 61 255 0.0 0.0 0.00 0.00 0.00 96 1018.1
20260901103458 61 255 0.0 0.0 0.00 0.00 0.00 96 1018.2
20260901102953 61 255 0.0 0.0 0.00 0.00 0.00 96 1018.0
20260901102448 61 299 0.0 0.0 0.00 0.00 0.00 96 1017.9
20260901101942 61 214 0.0 0.0 0.00 0.00 0.00 96 1017.9
20260901101437 61 213 0.0 0.0 0.00 0.00 0.00 96 1017.8
20260901100932 61 215 0.0 0.0 0.00 0.00 0.00 96 1017.9
20260901100426 61 219 0.0 0.0 0.00 0.00 0.00 95 1017.9
20260901095920 61 225 0.0 0.0 0.00 0.00 0.00 95 1017.7
20260901095419 61 314 0.0 0.0 0.00 0.00 0.00 96 1017.6
20260901094917 61 302 0.0 0.0 0.00 0.00 0.00 96 1017.5
20260901094412 61 226 0.0 0.0 0.00 0.00 0.00 96 1017.3
20260901093912 61 232 0.0 0.0 0.00 0.00 0.00 96 1017.5
20260901093411 61 232 0.0 0.0 0.00 0.00 0.00 96 1017.5
20260901092907 61 229 0.0 0.0 0.00 0.00 0.00 96 1017.3
20260901092402 61 233 0.0 0.0 0.00 0.00 0.00 96 1017.3
20260901091858 61 233 0.0 0.0 0.00 0.00 0.00 96 1017.5
20260901091358 61 233 0.0 0.0 0.00 0.00 0.00 96 1017.8
20260901090853 61 233 0.0 0.0 0.00 0.00 0.00 96 1017.6
20260901090348 61 233 0.0 0.0 0.00 0.00 0.00 96 1017.3
20260901085844 61 233 0.0 0.0 0.00 0.00 0.00 96 1017.4
20260901085339 61 233 0.0 0.0 0.00 0.00 0.00 96 1017.6
20260901084835 61 233 0.0 0.0 0.00 0.00 0.00 96 1017.5
20260901084331 61 233 0.0 0.0 0.00 0.00 0.00 96 1017.5
20260901083827 60 233 0.0 0.0 0.00 0.00 0.00 96 1017.6
20260901083326 60 233 0.0 0.0 0.00 0.00 0.00 96 1017.5
20260901082825 60 233 0.0 0.0 0.00 0.00 0.00 96 1017.6
20260901082320 60 233 0.0 0.0 0.00 0.00 0.00 96 1017.7
20260901081815 60 233 0.0 0.0 0.00 0.00 0.00 96 1017.5
20260901081315 60 233 0.0 0.0 0.00 0.00 0.00 97 1017.8
20260901080810 60 233 0.0 0.0 0.00 0.00 0.00 97 1017.8
20260901080310 60 233 0.0 0.0 0.00 0.00 0.00 97 1017.7
20260901075804 60 232 0.0 0.0 0.00 0.00 0.00 97 1017.8
20260901075300 60 266 0.0 0.0 0.00 0.00 0.00 97 1017.9
20260901074800 60 267 0.0 0.0 0.00 0.00 0.00 97 1017.9
20260901074254 60 267 0.0 0.0 0.00 0.00 0.00 97 1017.9
20260901073750 60 267 0.0 0.0 0.00 0.00 0.00 97 1017.9
20260901073246 60 267 0.0 0.0 0.00 0.00 0.00 97 1017.8
20260901072741 60 267 0.0 0.0 0.00 0.00 0.00 97 1017.9
20260901072236 60 267 0.0 0.0 0.00 0.00 0.00 97 1018.0
20260901071736 60 267 0.0 0.0 0.00 0.00 0.00 97 1018.1
20260901071230 60 269 0.0 0.0 0.00 0.00 0.00 97 1018.1
20260901070729 60 269 0.0 0.0 0.00 0.00 0.00 97 1018.2
20260901070224 60 269 0.0 0.0 0.00 0.00 0.00 96 1018.1
20260901065724 60 269 0.0 0.0 0.00 0.00 0.00 96 1018.1
20260901065219 60 263 0.0 0.0 0.00 0.00 0.00 96 1018.3
20260901064715 60 242 0.0 0.0 0.00 0.00 0.00 96 1017.8
20260901064212 60 243 0.0 0.0 0.00 0.00 0.00 96 1018.0
20260901063709 60 236 0.0 0.0 0.00 0.00 0.00 96 1018.4
20260901063204 60 236 0.0 0.0 0.00 0.00 0.00 95 1018.3
20260901062700 60 231 0.0 0.0 0.00 0.00 0.00 96 1018.1
20260901062155 60 229 0.0 0.0 0.00 0.00 0.00 96 1018.2
20260901061652 61 229 0.0 0.0 0.00 0.00 0.00 95 1018.4
20260901061151 61 246 0.0 0.0 0.00 0.00 0.00 95 1018.2
20260901060646 61 248 0.0 0.0 0.00 0.00 0.00 95 1018.3
20260901060142 61 246 0.0 0.0 0.00 0.00 0.00 95 1018.2
20260901055637 61 239 0.0 0.0 0.00 0.00 0.00 95 1018.3
20260901055134 61 239 0.0 0.0 0.00 0.00 0.00 95 1018.3
20260901054631 61 248 0.0 0.0 0.00 0.00 0.00 95 1018.4
20260901054126 61 246 0.0 0.0 0.00 0.00 0.00 95 1018.2
20260901053622 61 252 0.0 0.0 0.00 0.00 0.00 95 1018.3
20260901053118 61 289 0.0 0.0 0.00 0.00 0.00 95 1018.4
20260901052618 61 290 0.0 0.0 0.00 0.00 0.00 95 1018.3
20260901052113 61 291 0.0 0.0 0.00 0.00 0.00 95 1018.5
20260901051613 61 283 0.0 0.0 0.00 0.00 0.00 95 1018.4
20260901051112 61 254 0.0 0.0 0.00 0.00 0.00 95 1018.4
20260901050608 61 254 0.0 0.0 0.00 0.00 0.00 95 1018.3
20260901050103 61 253 0.0 0.0 0.00 0.00 0.00 95 1018.4
20260901045558 61 253 0.0 0.0 0.00 0.00 0.00 95 1018.4
20260901045058 61 226 0.0 0.0 0.00 0.00 0.00 95 1018.2
20260901044554 61 225 0.0 0.0 0.00 0.00 0.00 95 1018.3
20260901044049 61 225 0.0 0.0 0.00 0.00 0.00 95 1018.2
20260901043545 61 225 0.0 0.0 0.00 0.00 0.00 95 1018.3
20260901043040 61 225 0.0 0.0 0.00 0.00 0.00 95 1018.1
20260901042539 61 225 0.0 0.0 0.00 0.00 0.00 95 1018.0
20260901042035 61 225 0.0 0.0 0.00 0.00 0.00 95 1018.1
20260901041530 61 225 0.0 0.0 0.00 0.00 0.00 95 1018.1
20260901041025 61 225 0.0 0.0 0.00 0.00 0.00 94 1018.1
20260901040519 62 226 0.0 0.0 0.00 0.00 0.00 94 1017.9
20260901040014 62 215 0.0 0.0 0.00 0.00 0.00 94 1018.0
20260901035511 62 214 0.0 0.0 0.00 0.00 0.00 94 1018.0
20260901035011 62 258 0.0 0.0 0.00 0.00 0.00 94 1018.1
20260901034510 62 262 0.0 0.0 0.00 0.00 0.00 94 1018.1
20260901034005 62 256 0.0 0.0 0.00 0.00 0.00 94 1018.2
20260901033504 62 256 0.0 0.0 0.00 0.00 0.00 94 1018.3
20260901033003 62 256 0.0 0.0 0.00 0.00 0.00 94 1018.2
20260901032457 62 255 0.0 0.0 0.00 0.00 0.00 93 1018.2
20260901031952 62 244 0.0 0.0 0.00 0.00 0.00 93 1018.1
20260901031448 62 243 0.0 0.0 0.00 0.00 0.00 93 1018.1
20260901030948 62 243 0.0 0.0 0.00 0.00 0.00 92 1018.0
20260901030443 62 243 0.0 0.0 0.00 0.00 0.00 92 1018.2
20260901025942 63 243 0.0 0.0 0.00 0.00 0.00 92 1018.0
20260901025437 63 245 0.0 0.0 0.00 0.00 0.00 91 1018.2
20260901024936 63 245 0.0 0.0 0.00 0.00 0.00 91 1018.0
20260901024431 63 252 0.0 0.0 0.00 0.00 0.00 90 1018.2
20260901023930 63 252 0.0 0.0 0.00 0.00 0.00 90 1018.2
20260901023425 64 252 0.0 0.0 0.00 0.00 0.00 90 1018.1
20260901022920 64 263 0.0 0.0 0.00 0.00 0.00 89 1018.1
20260901022416 64 233 0.0 0.0 0.00 0.00 0.00 89 1018.2
20260901021910 64 233 0.0 0.0 0.00 0.00 0.00 88 1018.3
20260901021406 64 233 0.0 0.0 0.00 0.00 0.00 88 1018.1
20260901020901 64 233 0.0 0.0 0.00 0.00 0.00 88 1018.1
20260901020357 65 234 0.0 0.0 0.00 0.00 0.00 87 1018.0
20260901015855 65 234 0.0 0.0 0.00 0.00 0.00 87 1018.0
20260901015352 65 234 0.0 0.0 0.00 0.00 0.00 86 1018.0
20260901014851 65 234 0.0 0.0 0.00 0.00 0.00 86 1018.1
20260901014348 65 234 0.0 0.0 0.00 0.00 0.00 85 1018.1
20260901013843 66 234 0.0 0.0 0.00 0.00 0.00 85 1018.1
20260901013338 66 234 0.0 0.0 0.00 0.00 0.00 85 1018.0
20260901012834 66 233 0.0 0.0 0.00 0.00 0.00 85 1018.1
20260901012329 66 233 0.0 0.0 0.00 0.00 0.00 84 1018.0
20260901011825 66 233 0.0 0.0 0.00 0.00 0.00 84 1018.1
20260901011321 66 233 0.0 0.0 0.00 0.00 0.00 84 1018.1
20260901010820 67 233 0.0 0.0 0.00 0.00 0.00 84 1018.1
20260901010320 67 233 0.0 0.0 0.00 0.00 0.00 82 1018.3
20260901005818 67 233 0.0 0.0 0.00 0.00 0.00 82 1018.2
20260901005314 67 233 0.0 0.0 0.00 0.00 0.00 82 1018.3
20260901004814 67 233 0.0 0.0 0.00 0.00 0.00 82 1018.2
20260901004308 67 233 0.0 0.0 0.00 0.00 0.00 82 1018.1
20260901003803 67 233 0.0 0.0 0.00 0.00 0.00 82 1018.1
20260901003258 67 233 0.0 0.0 0.00 0.00 0.00 82 1018.3
20260901002756 67 232 0.0 0.0 0.00 0.00 0.00 81 1018.2
20260901002251 67 232 0.0 0.0 0.00 0.00 0.00 82 1018.1
20260901001746 68 232 0.0 0.0 0.00 0.00 0.00 81 1017.9
20260901001242 68 233 0.0 0.0 0.00 0.00 0.00 80 1018.0
20260901000737 68 233 0.0 0.0 0.00 0.00 0.00 79 1018.0
20260901000233 68 233 0.0 0.0 0.00 0.00 0.00 79 1018.1
20260831235731 68 238 0.0 0.0 0.00 0.00 0.00 79 1018.0
20260831235227 69 238 0.0 0.0 0.00 0.00 0.00 79 1017.7
20260831234727 69 238 0.0 0.0 0.00 0.00 0.00 78 1017.8
20260831234222 69 238 0.0 0.0 0.00 0.00 0.00 77 1017.7
20260831233717 69 239 0.0 0.0 0.00 0.00 0.00 77 1017.7
20260831233213 70 238 0.0 0.0 0.00 0.00 0.00 76 1017.9
20260831232712 70 239 0.0 0.0 0.00 0.00 0.00 76 1017.7
20260831232209 70 238 0.0 0.0 0.00 0.00 0.00 76 1018.1
20260831231705 70 239 0.0 0.0 0.00 0.00 0.00 75 1018.0
20260831231201 71 235 0.0 0.0 0.00 0.00 0.00 74 1018.1
20260831230701 71 235 0.0 0.0 0.00 0.00 0.00 74 1018.2
20260831230156 71 235 0.0 0.0 0.00 0.00 0.00 73 1018.2
20260831225655 72 236 0.0 0.0 0.00 0.00 0.00 71 1018.1
20260831225150 72 235 0.0 0.0 0.00 0.00 0.00 71 1018.0
20260831224651 72 236 0.0 0.0 0.00 0.00 0.00 70 1018.0
20260831224146 73 235 0.0 0.0 0.00 0.00 0.00 69 1018.3
20260831223642 73 236 0.0 0.0 0.00 0.00 0.00 69 1018.1
20260831223138 73 215 0.0 0.0 0.00 0.00 0.00 69 1018.2
20260831222634 73 223 0.0 0.0 0.00 0.00 0.00 68 1018.0
20260831222129 74 257 0.0 0.0 0.00 0.00 0.00 68 1018.1
20260831221625 74 227 0.0 0.0 0.00 0.00 0.00 68 1018.2
20260831221120 74 218 0.0 0.0 0.00 0.00 0.00 68 1018.1
20260831220615 74 221 0.0 0.0 0.00 0.00 0.00 67 1018.1
20260831220110 74 199 0.0 0.0 0.00 0.00 0.00 65 1018.1
20260831215605 74 222 0.0 0.0 0.00 0.00 0.00 67 1018.0
20260831215101 74 253 0.0 0.0 0.00 0.00 0.00 67 1018.0
20260831214558 74 306 0.0 0.0 0.00 0.00 0.00 67 1018.0
20260831214054 74 169 0.0 0.0 0.00 0.00 0.00 65 1018.0
20260831213550 75 169 0.0 0.0 0.00 0.00 0.00 62 1018.1
20260831213045 75 177 0.0 0.0 0.00 0.00 0.00 63 1018.0
20260831212541 75 140 0.0 0.0 0.00 0.00 0.00 62 1018.0
20260831212037 75 131 0.0 0.0 0.00 0.00 0.00 60 1018.0
20260831211531 75 151 0.0 0.0 0.00 0.00 0.00 62 1017.9
20260831211031 75 129 0.0 0.0 0.00 0.00 0.00 60 1017.9
20260831210526 75 178 0.0 0.0 0.00 0.00 0.00 61 1017.9
20260831210022 75 148 0.0 0.0 0.00 0.00 0.00 60 1018.0
20260831205522 75 118 0.0 0.0 0.00 0.00 0.00 60 1018.1
20260831205018 75 195 0.0 0.0 0.00 0.00 0.00 58 1018.1
20260831204513 76 95 0.0 0.9 0.00 0.00 0.00 56 1018.2
20260831204011 76 111 0.0 0.0 0.00 0.00 0.00 60 1018.2
20260831203511 76 144 0.0 0.9 0.00 0.00 0.00 56 1018.4
20260831203009 77 70 0.0 0.0 0.00 0.00 0.00 54 1018.3
20260831202504 77 139 0.0 0.9 0.00 0.00 0.00 54 1018.4
20260831202003 78 150 0.0 0.9 0.00 0.00 0.00 48 1018.5
20260831201502 78 110 0.0 0.0 0.00 0.00 0.00 51 1018.3
20260831200959 78 159 0.0 1.7 0.00 0.00 0.00 47 1018.4
20260831200454 80 169 0.0 0.9 0.00 0.00 0.00 47 1018.3
20260831195954 79 186 0.0 0.0 0.00 0.00 0.00 50 1018.4
20260831195449 78 151 0.0 0.9 0.00 0.00 0.00 45 1018.4
20260831194944 78 127 0.0 0.9 0.00 0.00 0.00 44 1018.6
20260831194440 79 187 0.0 1.7 0.00 0.00 0.00 43 1018.5
20260831193939 80 61 0.0 0.9 0.00 0.00 0.00 49 1018.5
20260831193435 80 153 0.9 0.9 0.00 0.00 0.00 42 1018.6
20260831192930 78 156 0.0 1.7 0.00 0.00 0.00 43 1018.5
20260831192430 79 162 0.9 1.7 0.00 0.00 0.00 46 1018.7
20260831191925 79 69 0.0 0.0 0.00 0.00 0.00 48 1018.7
20260831191421 79 200 0.0 0.9 0.00 0.00 0.00 52 1018.6
20260831190917 78 27 0.9 2.6 0.00 0.00 0.00 45 1018.7
20260831190412 79 41 1.7 3.5 0.00 0.00 0.00 48 1018.9
20260831185911 78 143 0.0 0.9 0.00 0.00 0.00 49 1018.8
20260831185408 77 153 0.0 1.7 0.00 0.00 0.00 50 1018.7
20260831184907 78 194 0.0 0.9 0.00 0.00 0.00 50 1018.8
20260831184402 79 41 0.0 0.9 0.00 0.00 0.00 50 1019.0
20260831183856 80 181 0.0 0.0 0.00 0.00 0.00 46 1018.8
20260831183350 78 205 0.0 0.9 0.00 0.00 0.00 45 1018.9
20260831182849 79 330 0.9 1.7 0.00 0.00 0.00 44 1019.1
20260831182344 79 130 0.0 0.9 0.00 0.00 0.00 49 1019.2
20260831181841 78 316 0.0 0.9 0.00 0.00 0.00 47 1019.3
20260831181336 78 52 0.0 0.9 0.00 0.00 0.00 46 1019.3
20260831180836 78 57 0.0 0.9 0.00 0.00 0.00 50 1019.3
20260831180331 78 179 0.0 1.7 0.00 0.00 0.00 47 1019.2
20260831175830 78 152 0.9 0.9 0.00 0.00 0.00 48 1019.4
20260831175326 78 78 0.9 1.7 0.00 0.00 0.00 45 1019.3
20260831174822 77 219 0.0 0.9 0.00 0.00 0.00 48 1019.4
20260831174317 76 167 0.0 0.9 0.00 0.00 0.00 57 1019.4
20260831173817 76 122 0.0 0.0 0.00 0.00 0.00 53 1019.6
20260831173311 77 47 0.0 0.0 0.00 0.00 0.00 51 1019.5
20260831172806 77 348 0.0 0.9 0.00 0.00 0.00 52 1019.6
20260831172301 77 102 0.9 1.7 0.00 0.00 0.00 53 1019.6
20260831171755 77 297 0.9 1.7 0.00 0.00 0.00 51 1019.7
20260831171252 77 17 0.9 0.9 0.00 0.00 0.00 53 1019.8
20260831170749 76 277 0.9 1.7 0.00 0.00 0.00 50 1019.8
20260831170245 76 96 0.0 0.9 0.00 0.00 0.00 55 1019.9
20260831165741 76 222 0.0 0.9 0.00 0.00 0.00 52 1019.9
20260831165237 75 214 0.0 1.7 0.00 0.00 0.00 52 1020.1
20260831164732 74 87 0.0 0.0 0.00 0.00 0.00 54 1020.0
20260831164230 74 46 0.9 0.9 0.00 0.00 0.00 53 1020.1
20260831163730 75 123 0.0 1.7 0.00 0.00 0.00 51 1020.1
20260831163226 75 183 0.0 1.7 0.00 0.00 0.00 53 1020.2
20260831162724 75 252 0.0 0.0 0.00 0.00 0.00 55 1020.3
20260831162223 75 148 0.0 0.0 0.00 0.00 0.00 59 1020.3
20260831161718 74 130 0.0 0.0 0.00 0.00 0.00 59 1020.4
20260831161215 73 121 0.0 0.0 0.00 0.00 0.00 59 1020.4
20260831160714 73 256 0.0 0.9 0.00 0.00 0.00 56 1020.6
20260831160210 74 291 0.0 0.0 0.00 0.00 0.00 55 1020.4
20260831155709 73 301 0.0 1.7 0.00 0.00 0.00 59 1020.5
20260831155205 73 296 0.0 1.7 0.00 0.00 0.00 59 1020.5